Change the Weather History Date:

Wednesday, October 16, 2013

  Actual Average Record
Temperature  
Mean Temperature 44 °F 48 °F  
Max Temperature 57 °F 61 °F 81 °F (1961)
Min Temperature 30 °F 34 °F 18 °F (1966)
Degree Days  
Heating Degree Days 21 17  
Month to date heating degree days 314 237  
Since 1 July heating degree days 457 507  
Cooling Degree Days 0 0  
Month to date cooling degree days 0 0  
Year to date cooling degree days 642 365  
Moisture  
Dew Point 26 °F    
Average Humidity 53    
Maximum Humidity 78    
Minimum Humidity 27    
Precipitation  
Precipitation 0.00 in 0.03 in 0.31 in (2012)
Month to date precipitation 0.23 0.37  
Year to date precipitation 4.31 7.68  
Sea Level Pressure  
Sea Level Pressure 30.17 in    
Wind  
Wind Speed 5 mph (SW)    
Max Wind Speed 13 mph    
Max Gust Speed 16 mph    
Visibility 9 miles    
Events      
T = Trace of Precipitation, MM = Missing Value Source: NWS Daily Summary

Daily Weather History Graph

Daily Weather History Graph

Search for Another Location

Airport or City:

Trip Planner

Search our weather history database for the weather conditions in past years. The results will help you decide how hot, cold, wet, or windy it might be!

Date:

Astronomy

Oct. 16, 2013 Rise Set
Actual Time 7:49 AM MDT 6:50 PM MDT
Civil Twilight 7:21 AM MDT 7:19 PM MDT
Nautical Twilight 6:48 AM MDT 7:51 PM MDT
Astronomical Twilight 6:15 AM MDT 8:24 PM MDT
Moon 5:34 PM MDT (10/16) 5:19 AM MDT (10/16)
Length of Visible Light 11h 57m
Length of Day
11h 01m
Waxing Gibbous, 94% of the Moon is Illuminated
Oct 16
Waxing Gibbous
Oct 18
Full
Oct 26
Last Quarter
Nov 3
New
Nov 9
First Quarter

Hourly Weather History & Observations

Time (MDT) Temp. Windchill Dew Point Humidity Pressure Visibility Wind Dir Wind Speed Gust Speed Precip Events Conditions
12:53 AM 34.0 °F 26.6 °F 26.1 °F 73% 30.23 in 3.0 mi SSW 9.2 mph - N/A   Haze
1:53 AM 35.1 °F 27.9 °F 26.1 °F 70% 30.22 in 3.0 mi SW 9.2 mph - N/A   Haze
2:53 AM 34.0 °F 25.5 °F 25.0 °F 70% 30.22 in 5.0 mi SSW 11.5 mph - N/A   Haze
3:53 AM 32.0 °F 24.8 °F 25.0 °F 75% 30.21 in 10.0 mi SSW 8.1 mph - N/A   Clear
4:53 AM 33.1 °F 26.1 °F 25.0 °F 72% 30.19 in 6.0 mi SSW 8.1 mph - N/A   Haze
5:53 AM 33.1 °F 24.4 °F 25.0 °F 72% 30.19 in 6.0 mi SSW 11.5 mph - N/A   Haze
6:53 AM 33.1 °F 24.9 °F 24.1 °F 70% 30.20 in 6.0 mi SSW 10.4 mph - N/A   Haze
7:53 AM 30.9 °F 27.5 °F 24.1 °F 76% 30.23 in 10.0 mi ESE 3.5 mph - N/A   Clear
8:53 AM 34.0 °F - 25.0 °F 70% 30.25 in 10.0 mi Calm Calm - N/A   Clear
9:08 AM 35.6 °F 32.8 °F 26.6 °F 70% 30.21 in 5.0 mi South 3.5 mph - N/A   Haze
9:17 AM 37.4 °F 32.8 °F 26.6 °F 65% 30.21 in 10.0 mi South 5.8 mph - N/A   Clear
9:53 AM 37.9 °F 34.4 °F 27.0 °F 65% 30.25 in 10.0 mi ESE 4.6 mph - N/A   Clear
10:53 AM 42.1 °F - 30.0 °F 62% 30.23 in 10.0 mi Calm Calm - N/A   Clear
11:53 AM 48.0 °F - 30.0 °F 50% 30.21 in 10.0 mi Calm Calm - N/A   Clear
12:53 PM 53.1 °F - 26.1 °F 35% 30.18 in 10.0 mi West 8.1 mph - N/A   Clear
1:53 PM 54.0 °F - 26.1 °F 34% 30.14 in 10.0 mi SW 5.8 mph - N/A   Clear
2:53 PM 55.0 °F - 25.0 °F 31% 30.12 in 10.0 mi West 6.9 mph - N/A   Clear
3:53 PM 55.0 °F - 25.0 °F 31% 30.12 in 10.0 mi West 3.5 mph - N/A   Clear
4:53 PM 55.9 °F - 23.0 °F 28% 30.10 in 10.0 mi WNW 5.8 mph - N/A   Clear
5:53 PM 55.0 °F - 23.0 °F 29% 30.10 in 10.0 mi WNW 4.6 mph - N/A   Clear
6:53 PM 46.0 °F - 28.0 °F 50% 30.10 in 10.0 mi Calm Calm - N/A   Clear
7:53 PM 41.0 °F - 28.0 °F 60% 30.12 in 10.0 mi Calm Calm - N/A   Clear
8:53 PM 42.1 °F 37.1 °F 28.0 °F 58% 30.11 in 10.0 mi South 8.1 mph - N/A   Clear
9:53 PM 37.9 °F 31.5 °F 28.9 °F 70% 30.13 in 10.0 mi SSW 9.2 mph - N/A   Clear
10:53 PM 41.0 °F - 27.0 °F 57% 30.11 in 10.0 mi Calm Calm - N/A   Clear
11:53 PM 37.9 °F 32.7 °F 28.0 °F 68% 30.10 in 10.0 mi SSW 6.9 mph - N/A   Clear